RH
59 64 65 87 100 100 99 100 95 100 100 100 100 100 100 92 68 36 24 22 20 17 15 14 13 14 15 16 18 22 65 87 100 100 100 100 100 100 100 100 89 84 84 64
57 68 80 77 93 98 99 100 97 97 100 100 100 100 100 77 53 53 25 23 21 18 17 15 13 12 12 14 14 18 32 80 90 100 100 100 100 99 100 100 100 100 85 71
62 52 51 70 94 100 100 100 100 100 100 100 100 100 75 69 77 30 27 23 19 18 17 16 15 14 13 11 12 13 19 62 82 98 100 100 100 100 100 100 100 99 87 87
60 48 58 59 55 73 90 100 100 100 100 100 92 81 57 56 32 31 24 19 19 17 16 16 15 13 10 9 10 12 15 40 75 99 96 99 100 100 100 100 90 86 86 65
51 54 58 84 72 69 90 85 100 100 100 99 89 86 38 37 32 24 21 21 18 15 13 13 10 9 9 9 9 11 13 31 78 100 100 100 100 100 100 100 95 73 61 78
30 40 44 57 59 86 78 83 98 100 100 93 92 85 46 39 27 26 24 20 15 14 12 11 13 17 17 16 9 11 13 24 74 100 100 100 100 100 100 100 79 85 80 84
22 33 28 48 70 86 92 96 92 89 95 95 94 72 50 32 28 26 20 15 14 12 12 22 23 22 26 21 10 11 12 20 71 100 100 100 100 100 100 100 100 84 81 93
29 42 58 73 79 100 100 100 93 90 98 97 93 55 39 33 27 20 15 14 12 12 28 31 29 27 36 21 11 10 12 16 72 100 100 100 100 100 100 100 100 92 86 87
46 73 93 77 78 98 100 100 99 93 100 100 88 52 37 28 20 16 14 12 12 23 29 29 32 29 40 19 10 10 11 16 82 100 100 100 100 100 100 100 100 100 88 75
44 93 56 68 84 100 100 100 99 100 100 99 74 41 29 21 16 14 13 11 23 32 24 24 29 32 34 33 12 10 11 20 89 100 100 100 100 100 100 100 100 100 76 80
74 67 55 69 100 100 100 97 100 100 100 83 48 31 23 17 15 13 12 23 36 36 28 23 29 28 30 37 19 11 11 27 97 100 100 100 100 100 100 100 100 99 85 82
42 60 65 74 92 100 100 100 100 100 75 36 32 23 18 18 14 12 23 40 44 45 37 33 26 28 32 33 31 13 13 40 98 100 100 100 100 100 100 100 100 100 100 97
52 71 87 100 100 100 100 100 100 77 40 32 24 18 18 15 14 28 43 46 41 32 30 31 28 25 36 34 32 16 15 46 98 100 100 100 100 100 100 100 100 100 100 100
84 100 100 100 100 99 100 100 75 39 32 23 18 18 16 13 27 36 33 38 39 40 40 34 30 26 32 39 30 18 17 39 99 100 100 100 100 100 100 100 100 100 100 100
94 100 100 100 100 100 100 69 39 33 26 22 20 16 13 28 40 38 41 65 69 60 45 33 25 25 33 42 30 21 20 31 99 100 100 98 100 100 100 100 100 100 100 100
100 100 100 100 100 100 66 40 31 25 22 20 16 13 18 42 42 44 55 74 74 75 89 97 87 56 50 40 34 26 25 33 99 100 100 100 100 97 100 100 100 100 100 100
100 100 100 100 99 62 41 29 24 22 20 16 14 13 33 46 37 50 72 85 75 82 91 100 100 80 53 42 43 33 31 38 100 100 100 100 100 96 100 100 100 100 100 100
99 100 100 94 54 40 31 27 24 20 19 17 14 16 54 33 34 58 76 87 85 83 83 100 100 90 83 68 51 40 35 58 100 100 100 100 100 100 100 100 100 100 100 100
100 100 86 50 37 31 27 25 22 21 18 14 20 47 66 45 45 62 74 82 86 89 86 84 100 100 93 85 61 44 39 87 100 100 100 100 100 100 100 100 100 100 100 100
97 65 44 35 30 28 27 24 22 20 15 17 55 86 85 78 56 49 55 68 65 74 90 88 86 95 100 89 66 46 42 98 100 100 100 100 100 100 100 100 100 100 100 100
48 36 33 30 29 27 25 23 22 17 12 38 90 99 94 86 78 85 81 64 68 56 81 94 92 98 100 99 75 49 43 100 100 100 100 100 100 100 100 100 100 100 100 100
34 32 31 28 26 25 25 24 19 12 12 74 89 100 100 83 70 72 98 100 96 70 72 96 98 95 100 100 80 52 47 100 100 100 100 100 100 100 100 100 100 100 100 100
26 25 24 25 26 26 24 19 12 9 37 97 96 98 100 100 99 91 79 80 92 92 80 85 95 98 100 99 79 56 50 99 100 100 100 100 100 100 100 100 100 100 100 100
20 23 26 26 24 20 15 11 10 15 78 100 100 99 100 94 88 83 82 84 85 83 80 84 96 100 92 83 71 58 58 98 100 100 100 100 100 100 99 99 100 100 100 100
23 22 20 16 13 10 10 10 17 46 99 100 100 100 100 100 98 100 93 92 95 100 95 97 100 100 98 90 70 60 67 94 100 100 100 100 100 99 98 100 100 100 100 100
18 14 11 10 10 12 13 32 42 96 100 100 100 100 100 100 100 99 98 97 100 100 99 100 100 100 97 93 78 64 79 92 100 100 100 100 100 100 98 100 100 100 100 100
10 11 12 18 25 36 50 58 89 100 100 100 100 100 100 100 100 100 99 100 100 100 100 100 100 100 100 100 86 82 100 97 100 100 100 100 100 96 99 100 100 100 100 100
Wind_Speed
49 51 51 49 42 40 44 43 44 38 38 36 37 34 36 38 39 40 42 43 45 44 44 44 43 42 41 39 37 34 31 32 28 24 25 24 26 28 30 29 29 30 29 29
47 44 45 45 41 44 45 49 47 40 37 35 36 36 36 39 42 42 42 46 47 47 46 46 43 41 39 39 36 34 31 31 30 27 23 24 24 25 25 25 27 27 28 28
49 46 45 48 55 53 44 48 44 40 35 33 37 35 39 42 44 42 46 48 50 51 50 47 46 45 42 40 37 34 30 30 27 27 22 21 23 22 23 24 27 28 29 29
51 50 49 50 52 53 51 50 51 45 37 38 36 35 36 43 43 45 49 51 53 54 51 50 50 49 45 41 37 33 31 30 26 24 23 22 20 21 21 22 24 25 24 22
52 51 51 53 55 54 52 51 49 48 38 37 39 37 37 40 46 48 52 55 56 56 53 53 52 49 44 36 34 32 29 28 25 22 22 20 19 21 21 20 20 21 20 20
54 53 52 52 54 53 53 50 45 39 41 43 42 38 38 40 45 49 52 54 55 55 55 52 41 35 34 30 30 30 28 26 24 21 21 19 19 20 20 21 19 19 18 19
53 55 54 53 52 50 50 47 38 41 43 43 41 41 40 43 47 52 55 54 54 54 48 36 32 33 34 28 26 29 28 25 23 20 20 18 21 18 20 19 17 18 20 20
53 52 50 50 51 50 47 40 43 43 42 40 40 40 43 47 50 52 52 53 54 47 35 33 33 33 33 25 24 28 27 24 22 20 18 17 21 18 18 17 16 18 17 20
48 47 50 51 49 46 42 42 45 44 41 39 38 41 45 48 50 51 52 53 48 38 31 31 30 30 29 22 22 28 26 23 22 18 17 17 20 18 16 15 15 13 13 13
48 47 52 48 46 42 43 45 44 41 38 38 39 43 47 49 50 51 52 47 39 34 30 27 26 27 28 22 21 26 26 24 22 18 16 17 21 19 15 12 10 10 7 9
47 51 50 48 45 46 44 43 41 39 38 39 42 45 48 49 50 50 47 40 36 35 31 32 29 27 24 21 20 24 25 24 24 20 16 21 20 18 14 10 9 7 9 10
49 49 49 45 41 42 42 40 38 37 37 42 45 46 47 48 50 47 40 37 36 35 34 33 27 22 20 17 17 22 26 25 26 22 18 23 23 19 17 12 10 9 11 13
49 46 43 41 42 41 38 38 36 36 40 42 44 45 46 48 46 39 37 36 35 35 32 28 25 22 19 16 16 20 25 26 28 25 20 24 25 23 20 14 12 12 11 14
44 42 40 41 39 35 35 34 35 39 41 43 43 46 46 46 39 35 35 34 34 33 32 29 25 22 20 17 15 18 25 26 27 25 22 26 28 26 24 19 14 14 14 11
41 41 40 36 33 33 33 34 37 39 40 42 45 47 45 37 32 34 33 31 33 34 33 29 25 19 19 17 14 19 25 28 26 27 24 27 31 26 25 23 19 15 17 16
38 35 32 31 31 32 33 36 38 39 41 43 45 44 40 32 32 32 29 29 29 29 24 19 13 15 16 15 12 19 25 29 26 28 24 27 33 30 26 26 22 17 15 17
32 30 30 30 31 33 36 38 39 40 42 44 46 41 33 31 30 30 27 27 27 23 16 13 7 8 11 12 12 17 24 29 28 26 23 28 30 31 29 27 25 19 18 19
29 28 29 30 33 35 37 38 40 42 45 45 42 36 29 26 26 28 26 27 26 20 12 11 8 6 8 10 11 14 22 28 28 25 22 24 26 29 30 30 27 23 23 23
28 29 31 33 35 36 38 40 43 44 43 41 36 31 28 24 25 27 25 25 21 18 14 11 10 10 8 9 10 12 20 29 27 23 21 19 23 24 27 31 30 28 27 23
29 31 34 36 36 38 41 43 44 43 39 34 31 28 26 24 27 29 23 16 17 16 15 14 13 14 10 9 9 11 20 30 27 21 20 19 20 23 25 28 31 30 27 24
33 34 36 38 41 42 43 44 42 40 36 28 26 25 24 24 22 22 21 18 17 16 15 15 16 18 15 11 10 10 18 31 28 22 19 19 19 21 24 26 27 28 26 25
35 38 41 43 44 45 44 42 40 36 30 24 23 22 22 24 22 19 17 18 14 14 14 14 13 12 15 12 10 10 16 32 29 23 20 20 19 21 25 27 29 30 30 29
42 44 46 46 46 44 42 40 35 30 23 20 22 21 20 20 20 21 19 14 15 16 15 13 13 11 11 11 10 10 14 27 30 25 22 22 21 21 23 25 27 28 27 26
47 47 47 46 45 42 38 34 29 24 18 18 19 20 20 19 19 20 18 17 14 10 11 11 13 10 11 12 11 10 13 23 32 27 25 24 23 23 23 24 24 25 26 27
49 48 47 43 39 36 32 27 23 18 16 18 17 18 16 16 17 18 19 17 12 11 12 10 10 13 11 11 12 12 13 20 34 29 27 27 25 24 21 19 19 19 19 19
46 43 39 35 32 28 24 21 18 14 15 16 15 15 13 14 15 14 14 11 8 5 6 7 5 8 10 10 11 12 13 18 33 31 29 30 30 28 21 18 18 17 16 15
36 33 30 26 23 20 20 18 14 13 13 13 13 12 11 12 11 10 10 8 8 7 6 4 4 3 5 8 11 13 15 21 29 29 30 29 32 30 23 19 18 17 16 16
Wind_Direction
326 318 315 316 315 308 308 310 301 300 303 299 307 305 303 303 303 303 304 306 308 308 305 303 299 298 298 298 291 285 276 271 275 273 268 267 256 253 253 251 246 245 244 242
329 324 318 313 311 304 303 302 300 300 299 308 308 305 301 299 301 304 305 306 308 307 306 303 300 297 297 294 293 285 278 272 269 271 269 267 259 255 257 248 246 243 242 243
327 323 316 311 306 308 309 308 300 298 302 305 301 306 300 299 302 305 305 308 308 308 308 305 300 296 295 291 285 283 275 269 269 263 268 273 257 251 251 249 243 244 245 246
324 320 312 309 310 309 312 313 314 301 306 303 303 299 297 299 304 305 306 308 309 310 310 306 302 299 293 285 277 274 270 267 266 257 260 268 257 244 247 253 249 245 241 238
314 310 306 306 309 311 311 310 313 302 302 299 298 298 299 302 306 309 310 311 312 313 311 307 303 300 295 283 266 263 261 260 258 255 256 261 248 245 242 254 241 232 237 243
308 307 305 306 308 309 309 310 309 308 306 302 297 295 300 304 308 311 313 314 314 314 312 308 305 301 300 289 258 251 251 253 248 250 250 257 245 235 240 242 233 238 240 250
308 307 308 308 308 311 311 309 304 308 303 300 298 301 303 305 310 313 314 314 314 315 311 306 303 306 310 293 254 241 244 244 240 245 246 250 235 230 247 231 240 243 249 253
307 308 309 309 309 310 308 305 306 307 302 300 301 305 310 311 314 315 315 315 315 314 311 305 301 304 312 291 245 235 236 237 235 238 244 246 231 224 224 234 252 244 249 259
307 304 305 308 309 310 306 303 306 303 301 302 303 309 311 314 316 315 316 317 314 310 307 305 305 299 305 293 240 231 229 227 227 229 243 233 202 206 222 237 246 244 247 252
302 302 305 307 308 307 306 307 303 301 302 303 308 312 315 316 316 317 317 314 309 306 301 298 308 308 305 299 247 230 224 218 216 212 225 215 187 205 215 234 240 235 232 211
298 302 304 306 305 305 306 306 303 303 305 308 313 316 317 317 317 317 316 309 306 304 296 294 303 302 307 295 259 232 221 212 207 202 203 194 188 200 207 223 219 200 173 149
302 302 303 304 303 304 305 303 303 305 310 314 316 318 319 318 318 318 310 307 307 304 299 297 300 292 296 292 273 233 217 207 204 202 193 192 185 199 206 210 200 180 169 161
302 302 302 302 303 305 305 303 305 309 313 316 318 318 319 320 319 314 311 311 308 306 303 298 293 285 275 283 273 232 214 206 206 203 198 198 192 203 209 211 201 181 186 191
301 301 300 302 303 305 304 305 309 313 316 317 319 320 322 322 318 314 313 313 312 312 310 303 293 284 265 267 271 226 212 205 206 206 203 202 198 208 213 211 205 192 188 189
298 299 300 302 302 303 304 307 311 315 317 318 321 324 323 318 315 316 317 317 318 317 314 306 290 261 248 251 261 222 207 202 203 201 204 206 202 205 211 206 204 205 196 192
297 299 299 299 302 304 306 310 314 317 319 322 324 323 319 314 316 319 320 319 322 327 324 316 270 230 229 239 250 221 205 199 200 194 202 206 204 206 206 206 203 204 203 201
298 297 298 302 303 305 309 314 316 319 321 322 324 321 315 315 317 320 318 316 327 332 332 329 302 244 227 232 239 223 206 196 194 193 198 204 200 204 205 206 207 210 212 211
297 299 302 302 304 308 312 315 318 320 321 322 322 318 311 314 316 319 315 313 320 326 318 323 323 295 258 243 242 224 208 194 191 194 196 197 198 201 207 204 206 213 215 216
298 300 302 304 307 311 314 317 319 320 321 320 316 313 307 303 308 313 311 309 312 312 296 288 299 300 280 256 252 228 209 193 191 196 197 196 198 199 204 209 204 210 218 219
300 303 304 307 310 312 315 317 318 319 320 313 311 310 308 308 308 307 312 313 321 308 296 274 267 272 279 261 254 231 206 189 190 195 199 202 201 201 204 210 213 215 219 217
302 304 305 308 310 313 314 315 316 317 314 307 309 308 312 316 313 304 297 292 306 311 293 282 268 266 265 263 255 234 208 187 189 192 198 203 204 204 206 209 214 215 213 209
302 304 306 308 310 312 312 313 314 312 306 302 305 310 313 317 318 321 305 292 297 308 297 278 273 267 260 259 254 239 212 190 190 192 198 200 202 203 206 204 202 204 208 214
304 306 308 309 309 310 310 310 308 304 299 297 305 306 311 321 323 320 319 310 294 298 294 271 264 259 249 249 253 248 218 195 189 192 197 195 199 206 204 204 210 214 218 219
306 306 307 308 308 307 305 303 299 297 290 293 303 306 312 318 318 318 317 307 289 289 303 280 248 251 252 246 239 240 225 199 185 190 192 191 196 211 214 213 217 221 225 229
305 306 307 306 303 300 297 294 293 289 286 295 303 304 306 314 316 321 329 329 311 275 294 292 248 240 248 249 238 230 220 203 186 189 188 189 193 209 215 216 217 221 225 229
306 306 304 300 297 294 290 287 288 279 287 295 302 307 309 312 315 322 331 335 338 322 294 303 266 243 243 238 224 224 212 200 182 190 188 189 193 212 217 219 221 226 229 232
305 302 299 297 293 288 286 288 276 276 286 294 302 310 319 322 328 331 336 321 319 319 325 335 261 243 228 218 214 213 197 184 179 190 188 191 196 208 212 217 223 228 235 241